Weather History for KOZR - February, 2013

Change the Weather History Date:

Sunday, February 10, 2013

  Actual Average Record
Temperature  
Mean Temperature 59 °F -  
Max Temperature 72 °F 61 °F 78 °F (1999)
Min Temperature 46 °F 39 °F 26 °F (2006)
Degree Days  
Heating Degree Days 6    
Growing Degree Days 9 (Base 50)    
Moisture  
Dew Point 55 °F    
Average Humidity 84    
Maximum Humidity 100    
Minimum Humidity 62    
Precipitation  
Precipitation 2.53 in - - ()
Sea Level Pressure  
Sea Level Pressure 30.11 in    
Wind  
Wind Speed 11 mph (East)    
Max Wind Speed 21 mph    
Max Gust Speed 29 mph    
Visibility 8 miles    
Events Fog , Rain , Thunderstorm    
Averages and records for this station are not official NWS values.
T = Trace of Precipitation, MM = Missing Value Source: NWS Daily Summary

Daily Weather History Graph

Daily Weather History Graph

Search for Another Location

Airport or City:

Trip Planner

Search our weather history database for the weather conditions in past years. The results will help you decide how hot, cold, wet, or windy it might be!

Date:

Astronomy

Feb. 10, 2013 Rise Set
Actual Time 6:28 AM CST 5:26 PM CST
Civil Twilight 6:03 AM CST 5:51 PM CST
Nautical Twilight 5:34 AM CST 6:19 PM CST
Astronomical Twilight 5:06 AM CST 6:48 PM CST
Moon 6:22 AM CST (2/10) 6:09 PM CST (2/10)
Length of Visible Light 11h 47m
Length of Day
10h 57m
New Moon, 0% of the Moon is Illuminated
Feb 10
New Moon
Feb 17
First Quarter
Feb 25
Full
Mar 4
Last Quarter
Mar 11
New

Hourly Weather History & Observations

Time (CST) Temp. Windchill Dew Point Humidity Pressure Visibility Wind Dir Wind Speed Gust Speed Precip Events Conditions
12:58 AM 46.4 °F 43.5 °F 40.3 °F 79% 30.21 in 10.0 mi ENE 5.8 mph - N/A   Clear
1:58 AM 50.2 °F - 42.1 °F 74% 30.19 in 10.0 mi East 9.2 mph - N/A   Partly Cloudy
2:58 AM 50.4 °F - 42.1 °F 73% 30.19 in 10.0 mi East 9.2 mph - N/A   Mostly Cloudy
3:58 AM 49.3 °F - 41.5 °F 75% 30.20 in 10.0 mi East 5.8 mph - N/A   Mostly Cloudy
4:58 AM 49.1 °F - 40.8 °F 73% 30.21 in 10.0 mi East 6.9 mph - N/A   Clear
5:58 AM 48.6 °F - 41.0 °F 75% 30.21 in 10.0 mi East 8.1 mph - N/A   Clear
6:58 AM 49.5 °F - 42.6 °F 77% 30.19 in 10.0 mi East 9.2 mph - N/A   Clear
7:28 AM 51.8 °F - 44.6 °F 76% 30.20 in 10.0 mi ESE 9.2 mph - N/A   Mostly Cloudy
7:53 AM 53.6 °F - 46.4 °F 77% 30.21 in 10.0 mi East 11.5 mph - N/A   Mostly Cloudy
7:58 AM 54.0 °F - 45.7 °F 74% 30.22 in 10.0 mi East 6.9 mph - N/A   Mostly Cloudy
8:33 AM 55.4 °F - 48.2 °F 77% 30.20 in 10.0 mi ESE 16.1 mph 24.2 mph N/A   Overcast
8:38 AM 57.2 °F - 48.2 °F 72% 30.20 in 10.0 mi ESE 12.7 mph 24.2 mph N/A   Overcast
8:53 AM 57.2 °F - 48.2 °F 72% 30.19 in 10.0 mi ESE 17.3 mph 28.8 mph N/A   Scattered Clouds
8:58 AM 57.7 °F - 48.2 °F 70% 30.20 in 10.0 mi ESE 12.7 mph 24.2 mph N/A   Scattered Clouds
9:58 AM 62.2 °F - 50.7 °F 66% 30.21 in 10.0 mi SE 13.8 mph - N/A   Partly Cloudy
10:58 AM 66.4 °F - 54.1 °F 65% 30.18 in 10.0 mi SE 17.3 mph 23.0 mph N/A   Mostly Cloudy
11:58 AM 69.4 °F - 56.1 °F 62% 30.14 in 10.0 mi SSE 20.7 mph 27.6 mph N/A   Mostly Cloudy
12:58 PM 71.1 °F - 57.4 °F 62% 30.10 in 10.0 mi SSE 16.1 mph 24.2 mph N/A   Mostly Cloudy
1:58 PM 72.0 °F - 58.1 °F 62% 30.08 in 10.0 mi South 13.8 mph 23.0 mph N/A   Mostly Cloudy
3:58 PM 71.1 °F - 59.2 °F 66% 30.07 in 10.0 mi SSE 15.0 mph 23.0 mph N/A   Overcast
4:48 PM 69.8 °F - 59.0 °F 68% 30.04 in 10.0 mi SE 12.7 mph - N/A   Light Drizzle
4:53 PM 69.8 °F - 60.8 °F 73% 30.05 in 10.0 mi SSE 13.8 mph - N/A Rain Light Rain
4:58 PM 69.4 °F - 60.1 °F 72% 30.06 in 10.0 mi SSE 12.7 mph - 0.00 in Rain Light Rain
5:00 PM 69.8 °F - 60.8 °F 73% 30.05 in 10.0 mi SSE 12.7 mph - N/A   Overcast
5:58 PM 68.4 °F - 59.9 °F 74% 30.05 in 10.0 mi SSE 11.5 mph 21.9 mph 0.00 in   Overcast
6:58 PM 67.6 °F - 60.3 °F 77% 30.05 in 10.0 mi SSE 13.8 mph 19.6 mph N/A   Overcast
7:27 PM 68.0 °F - 60.8 °F 78% 30.03 in 10.0 mi SSE 17.3 mph 24.2 mph N/A Rain Light Rain
7:36 PM 66.2 °F - 60.8 °F 83% 30.03 in 10.0 mi SSE 11.5 mph 23.0 mph N/A   Overcast
7:58 PM 66.9 °F - 60.8 °F 81% 30.06 in 10.0 mi South 15.0 mph 18.4 mph 0.00 in   Overcast
8:12 PM 68.0 °F - 60.8 °F 78% 30.11 in 10.0 mi NNW 16.1 mph - N/A Thunderstorm Thunderstorm
8:17 PM 66.2 °F - 60.8 °F 83% 30.11 in 10.0 mi NW 15.0 mph 23.0 mph N/A Rain , Thunderstorm Light Thunderstorms and Rain
8:24 PM 64.4 °F - 59.0 °F 83% 30.13 in 3.0 mi NNW 18.4 mph 23.0 mph N/A Rain , Thunderstorm Heavy Thunderstorms and Rain
8:29 PM 62.6 °F - 59.0 °F 88% 30.10 in 0.8 mi NNW 11.5 mph 24.2 mph N/A Rain , Thunderstorm Heavy Thunderstorms and Rain
8:39 PM 59.0 °F - 57.2 °F 94% 30.11 in 0.2 mi Variable 4.6 mph - N/A Fog , Rain , Thunderstorm Heavy Thunderstorms and Rain
8:44 PM 59.0 °F - 59.0 °F 100% 30.09 in 0.2 mi North 12.7 mph - N/A Fog , Rain , Thunderstorm Heavy Thunderstorms and Rain
8:49 PM 59.0 °F - 59.0 °F 100% 30.09 in 0.5 mi NNE 12.7 mph 18.4 mph N/A Fog , Rain , Thunderstorm Heavy Thunderstorms and Rain
8:58 PM 60.3 °F - 58.3 °F 93% 30.13 in 1.0 mi NNW 8.1 mph 19.6 mph 1.56 in Rain , Thunderstorm Heavy Thunderstorms and Rain
9:03 PM 60.8 °F - 59.0 °F 94% 30.10 in 0.8 mi NE 4.6 mph - N/A Rain , Thunderstorm Heavy Thunderstorms and Rain
9:13 PM 59.0 °F - 59.0 °F 100% 30.10 in 1.0 mi NNE 8.1 mph - N/A Rain , Thunderstorm Heavy Thunderstorms and Rain
9:31 PM 59.0 °F - 59.0 °F 100% 30.09 in 9.0 mi NE 8.1 mph - N/A Rain , Thunderstorm Light Rain
9:46 PM 59.0 °F - 59.0 °F 100% 30.11 in 3.0 mi NE 8.1 mph - N/A Rain , Thunderstorm Heavy Thunderstorms and Rain
9:51 PM 59.0 °F - 59.0 °F 100% 30.10 in 2.5 mi ENE 9.2 mph - N/A Rain , Thunderstorm Thunderstorms and Rain
9:58 PM 59.7 °F - 58.6 °F 96% 30.11 in 2.5 mi ENE 8.1 mph - 0.69 in Rain , Thunderstorm Thunderstorms and Rain
10:08 PM 59.0 °F - 59.0 °F 100% 30.09 in 3.0 mi East 10.4 mph - N/A Rain , Thunderstorm Thunderstorms and Rain
10:13 PM 59.0 °F - 59.0 °F 100% 30.09 in 2.0 mi ENE 10.4 mph - N/A Rain , Thunderstorm Light Thunderstorms and Rain
10:18 PM 59.0 °F - 59.0 °F 100% 30.09 in 1.8 mi ENE 12.7 mph - N/A Rain , Thunderstorm Thunderstorms and Rain
10:34 PM 59.0 °F - 59.0 °F 100% 30.09 in 1.8 mi ENE 12.7 mph - N/A Rain , Thunderstorm Heavy Thunderstorms and Rain
10:39 PM 59.0 °F - 59.0 °F 100% 30.08 in 2.5 mi NE 12.7 mph - N/A Rain , Thunderstorm Light Thunderstorms and Rain
10:42 PM 59.0 °F - 59.0 °F 100% 30.08 in 7.0 mi ENE 12.7 mph - N/A Rain , Thunderstorm Light Rain
10:47 PM 59.0 °F - 59.0 °F 100% 30.08 in 10.0 mi NE 11.5 mph - N/A Rain Light Rain
10:58 PM 59.5 °F - 58.3 °F 96% 30.09 in 10.0 mi ENE 9.2 mph - 0.28 in Rain , Thunderstorm Light Thunderstorms and Rain
11:15 PM 59.0 °F - 59.0 °F 100% 30.07 in 10.0 mi East 8.1 mph - N/A Rain Light Rain
11:20 PM 59.0 °F - 59.0 °F 100% 30.06 in 10.0 mi East 8.1 mph - N/A Rain Light Rain
11:34 PM 59.0 °F - 59.0 °F 100% 30.05 in 10.0 mi ENE 11.5 mph - N/A Thunderstorm Overcast
11:39 PM 59.0 °F - 59.0 °F 100% 30.05 in 10.0 mi ENE 9.2 mph - N/A Thunderstorm Overcast
11:43 PM 59.0 °F - 59.0 °F 100% 30.06 in 10.0 mi NE 10.4 mph - N/A Rain Light Rain
11:49 PM 59.0 °F - 59.0 °F 100% 30.06 in 9.0 mi NNE 9.2 mph - N/A Rain , Thunderstorm Light Thunderstorms and Rain